Location: Casteau
(50.5142°N, 4.0161°E)
Time: 18:29:49
(UTC+00:00)

S-56A Canister/Altair - Pass Details

Date: 03 August 2021
Orbit: 632 x 2500 km, 38.9° (Epoch: 20 September)

Event Time Altitude Azimuth Distance (km) Brightness Sun altitude
Rises 16:02:25 0° 254° (WSW) 5,661 13.1 30.3°
Reaches altitude 10° 16:05:59 10° 249° (WSW) 4,831 13.1 29.7°
Maximum altitude 16:19:34 53° 179° (S) 2,921 10.9 27.6°
Drops below altitude 10° 16:33:28 10° 110° (ESE) 4,929 11.2 25.4°
Sets 16:37:08 0° 105° (ESE) 5,779 11.5 24.8°
